"read_dt","SO2 (ppb)","flags","PMT voltage (V)","lamp voltage (V)","lamp intensity (Hz)","internal temp (C)","react chamber temp (C)","sample flow (l/min)","pres (mmHg)","SO2 bkg (ppb)","SO2 coefficient"
2014-04-08 00:00:00,3136E-2,5C000400,-0724,0995,10553,027.9,045.3,0.146,758.3,01.16,0.508
2014-04-08 00:01:00,3135E-2,5C000400,-0724,0995,10487,027.9,045.3,0.146,758.3,01.16,0.508
2014-04-08 00:02:00,3117E-2,5C000400,-0724,0994,10493,027.9,045.3,0.146,758.3,01.16,0.508
2014-04-08 00:03:00,3134E-2,5C000400,-0724,0995,10579,027.9,045.3,0.146,758.3,01.16,0.508
2014-04-08 00:04:00,3105E-2,5C000400,-0724,0996,10695,027.9,045.3,0.146,758.3,01.16,0.508
2014-04-08 00:05:00,3101E-2,5C000400,-0724,0995,10591,027.9,045.3,0.146,758.3,01.16,0.508
2014-04-08 00:06:00,3165E-2,5C000400,-0724,0995,10618,027.9,045.3,0.146,758.3,01.16,0.508
2014-04-08 00:07:00,3162E-2,5C000400,-0724,0995,10640,027.9,045.3,0.146,758.3,01.16,0.508
2014-04-08 00:08:00,3107E-2,5C000400,-0724,0996,10425,027.9,045.3,0.146,758.3,01.16,0.508
2014-04-08 00:09:00,3132E-2,5C000400,-0724,0995,10641,027.9,045.3,0.146,758.3,01.16,0.508
2014-04-08 00:10:00,3128E-2,5C000400,-0724,0995,10468,027.9,045.3,0.146,758.3,01.16,0.508
2014-04-08 00:11:00,3135E-2,5C000400,-0724,0994,10289,027.9,045.3,0.146,758.3,01.16,0.508
2014-04-08 00:12:00,3116E-2,5C000400,-0724,0996,10668,027.9,045.3,0.146,758.3,01.16,0.508
2014-04-08 00:13:00,3186E-2,5C000400,-0724,0995,10673,027.9,045.3,0.146,758.3,01.16,0.508
2014-04-08 00:14:00,3141E-2,5C000400,-0724,0995,10658,027.9,045.3,0.146,758.3,01.16,0.508
2014-04-08 00:15:00,3136E-2,5C000400,-0724,0996,10711,027.9,045.3,0.146,758.3,01.16,0.508
2014-04-08 00:16:00,3125E-2,5C000400,-0724,0995,10532,027.9,045.3,0.146,758.3,01.16,0.508
2014-04-08 00:17:00,3155E-2,5C000400,-0724,0996,10415,027.9,045.3,0.146,758.3,01.16,0.508
2014-04-08 00:18:00,3170E-2,5C000400,-0724,0995,10531,027.9,045.3,0.146,758.3,01.16,0.508
2014-04-08 00:19:00,3142E-2,5C000400,-0724,0995,10577,027.9,045.3,0.146,758.3,01.16,0.508
2014-04-08 00:20:00,3175E-2,5C000400,-0724,0994,10643,027.8,045.3,0.146,758.3,01.16,0.508
2014-04-08 00:21:00,3190E-2,5C000400,-0724,0996,10547,027.9,045.3,0.146,758.3,01.16,0.508
2014-04-08 00:22:00,3150E-2,5C000400,-0724,0997,10468,027.9,045.3,0.146,758.3,01.16,0.508
2014-04-08 00:23:00,3157E-2,5C000400,-0724,0996,10681,027.9,045.3,0.146,758.3,01.16,0.508
2014-04-08 00:24:00,3142E-2,5C000400,-0724,0996,10498,027.9,045.3,0.146,758.3,01.16,0.508
2014-04-08 00:25:00,3137E-2,5C000400,-0724,0996,10574,027.8,045.3,0.146,758.2,01.16,0.508
2014-04-08 00:26:00,3140E-2,5C000400,-0724,0995,10664,027.8,045.3,0.146,758.2,01.16,0.508
2014-04-08 00:27:00,3130E-2,5C000400,-0724,0995,10471,027.8,045.3,0.146,758.3,01.16,0.508
2014-04-08 00:28:00,3137E-2,5C000400,-0724,0996,10591,027.9,045.3,0.146,758.3,01.16,0.508
2014-04-08 00:29:00,3177E-2,5C000400,-0724,0994,10482,027.8,045.3,0.146,758.2,01.16,0.508
2014-04-08 00:30:00,3150E-2,5C000400,-0724,0995,10530,027.8,045.3,0.146,758.2,01.16,0.508
2014-04-08 00:31:00,3174E-2,5C000400,-0724,0995,10433,027.8,045.3,0.146,758.2,01.16,0.508
2014-04-08 00:32:00,3172E-2,5C000400,-0724,0995,10451,027.8,045.3,0.146,758.3,01.16,0.508
2014-04-08 00:33:00,3133E-2,5C000400,-0724,0997,10597,027.8,045.3,0.146,758.3,01.16,0.508
2014-04-08 00:34:00,3189E-2,5C000400,-0724,0996,10401,027.8,045.3,0.146,758.2,01.16,0.508
2014-04-08 00:35:00,3154E-2,5C000400,-0724,0996,10561,027.8,045.3,0.146,758.3,01.16,0.508
2014-04-08 00:36:00,3139E-2,5C000400,-0724,0996,10531,027.8,045.3,0.146,758.3,01.16,0.508
2014-04-08 00:37:00,3162E-2,5C000400,-0724,0997,10594,027.8,045.3,0.146,758.2,01.16,0.508
2014-04-08 00:38:00,3163E-2,5C000400,-0724,0997,10579,027.8,045.3,0.146,758.2,01.16,0.508
2014-04-08 00:39:00,3169E-2,5C000400,-0724,0995,10458,027.8,045.3,0.146,758.2,01.16,0.508
2014-04-08 00:40:00,3118E-2,5C000400,-0724,0996,10511,027.8,045.3,0.146,758.3,01.16,0.508
2014-04-08 00:41:00,3199E-2,5C000400,-0724,0994,10380,027.8,045.3,0.146,758.3,01.16,0.508
2014-04-08 00:42:00,3159E-2,5C000400,-0724,0994,10658,027.8,045.3,0.146,758.2,01.16,0.508
2014-04-08 00:43:00,3144E-2,5C000400,-0724,0995,10687,027.8,045.3,0.146,758.3,01.16,0.508
2014-04-08 00:44:00,3176E-2,5C000400,-0724,0996,10472,027.8,045.3,0.146,758.3,01.16,0.508
2014-04-08 00:45:00,3172E-2,5C000400,-0724,0996,10633,027.8,045.3,0.146,758.3,01.16,0.508
2014-04-08 00:46:00,3169E-2,5C000400,-0724,0996,10495,027.8,045.3,0.146,758.3,01.16,0.508
2014-04-08 00:47:00,3140E-2,5C000400,-0724,0996,10486,027.8,045.3,0.146,758.3,01.16,0.508
2014-04-08 00:48:00,3155E-2,5C000400,-0724,0996,10636,027.8,045.3,0.146,758.3,01.16,0.508
2014-04-08 00:49:00,3146E-2,5C000400,-0724,0995,10624,027.8,045.3,0.146,758.3,01.16,0.508
2014-04-08 00:50:00,3190E-2,5C000400,-0724,0997,10564,027.8,045.3,0.146,758.3,01.16,0.508
2014-04-08 00:51:00,3155E-2,5C000400,-0724,0997,10656,027.8,045.3,0.146,758.3,01.16,0.508
2014-04-08 00:52:00,3207E-2,5C000400,-0724,0997,10539,027.8,045.3,0.146,758.4,01.16,0.508
2014-04-08 00:53:00,3185E-2,5C000400,-0724,0995,10576,027.8,045.3,0.146,758.4,01.16,0.508
2014-04-08 00:54:00,3206E-2,5C000400,-0724,0997,10466,027.8,045.3,0.146,758.3,01.16,0.508
2014-04-08 00:55:00,3187E-2,5C000400,-0724,0996,10537,027.8,045.3,0.146,758.4,01.16,0.508
2014-04-08 00:56:00,3183E-2,5C000400,-0724,0995,10483,027.8,045.3,0.146,758.4,01.16,0.508
2014-04-08 00:57:00,3186E-2,5C000400,-0724,0996,10609,027.8,045.3,0.146,758.4,01.16,0.508
2014-04-08 00:58:00,3176E-2,5C000400,-0724,0995,10687,027.8,045.3,0.146,758.4,01.16,0.508
2014-04-08 00:59:00,3150E-2,5C000400,-0724,0996,10513,027.8,045.3,0.146,758.4,01.16,0.508
2014-04-08 01:00:00,3170E-2,5C000400,-0724,0997,10546,027.8,045.3,0.146,758.5,01.16,0.508
2014-04-08 01:01:00,3185E-2,5C000400,-0724,0996,10446,027.8,045.3,0.146,758.4,01.16,0.508
2014-04-08 01:02:00,3152E-2,5C000400,-0724,0996,10457,027.8,045.3,0.146,758.4,01.16,0.508
2014-04-08 01:03:00,3162E-2,5C000400,-0724,0996,10569,027.8,045.3,0.146,758.4,01.16,0.508
2014-04-08 01:04:00,3191E-2,5C000400,-0724,0997,10595,027.8,045.3,0.146,758.5,01.16,0.508
2014-04-08 01:05:00,3186E-2,5C000400,-0724,0997,10615,027.8,045.3,0.146,758.5,01.16,0.508
2014-04-08 01:06:00,3186E-2,5C000400,-0724,0996,10620,027.8,045.3,0.146,758.5,01.16,0.508
2014-04-08 01:07:00,3185E-2,5C000400,-0724,0996,10522,027.8,045.3,0.146,758.5,01.16,0.508
2014-04-08 01:08:00,3190E-2,5C000400,-0724,0995,10611,027.8,045.3,0.146,758.5,01.16,0.508
2014-04-08 01:09:00,3198E-2,5C000400,-0724,0996,10469,027.8,045.3,0.146,758.4,01.16,0.508
2014-04-08 01:10:00,3160E-2,5C000400,-0724,0997,10654,027.8,045.3,0.146,758.5,01.16,0.508
2014-04-08 01:11:00,3220E-2,5C000400,-0724,0996,10454,027.8,045.3,0.146,758.5,01.16,0.508
2014-04-08 01:12:00,3156E-2,5C000400,-0724,0996,10530,027.8,045.3,0.146,758.5,01.16,0.508
2014-04-08 01:13:00,3166E-2,5C000400,-0724,0996,10677,027.8,045.3,0.146,758.5,01.16,0.508
2014-04-08 01:14:00,3188E-2,5C000400,-0724,0997,10563,027.8,045.3,0.146,758.4,01.16,0.508
2014-04-08 01:15:00,3158E-2,5C000400,-0724,0996,10339,027.8,045.3,0.146,758.5,01.16,0.508
2014-04-08 01:16:00,3186E-2,5C000400,-0724,0997,10529,027.8,045.3,0.146,758.5,01.16,0.508
2014-04-08 01:17:00,3218E-2,5C000400,-0724,0996,10476,027.8,045.3,0.146,758.4,01.16,0.508
2014-04-08 01:18:00,3172E-2,5C000400,-0724,0996,10536,027.8,045.3,0.146,758.5,01.16,0.508
2014-04-08 01:19:00,3139E-2,5C000400,-0724,0996,10597,027.8,045.3,0.146,758.5,01.16,0.508
2014-04-08 01:20:00,3155E-2,5C000400,-0724,0997,10385,027.8,045.3,0.146,758.4,01.16,0.508
2014-04-08 01:21:00,3221E-2,5C000400,-0724,0996,10656,027.8,045.3,0.146,758.4,01.16,0.508
2014-04-08 01:22:00,3172E-2,5C000400,-0724,0997,10549,027.8,045.3,0.146,758.5,01.16,0.508
2014-04-08 01:23:00,3171E-2,5C000400,-0724,0997,10518,027.8,045.3,0.146,758.5,01.16,0.508
2014-04-08 01:24:00,3128E-2,5C000400,-0724,0997,10513,027.9,045.3,0.146,758.4,01.16,0.508
2014-04-08 01:25:00,3152E-2,5C000400,-0724,0996,10517,027.8,045.3,0.146,758.4,01.16,0.508
2014-04-08 01:26:00,3158E-2,5C000400,-0724,0997,10421,027.8,045.3,0.146,758.4,01.16,0.508
2014-04-08 01:27:00,3206E-2,5C000400,-0724,0996,10552,027.8,045.3,0.146,758.4,01.16,0.508
2014-04-08 01:28:00,3195E-2,5C000400,-0724,0996,10513,027.9,045.3,0.146,758.4,01.16,0.508
2014-04-08 01:29:00,3169E-2,5C000400,-0724,0997,10458,027.9,045.3,0.146,758.4,01.16,0.508
2014-04-08 01:30:00,3174E-2,5C000400,-0724,0998,10516,027.9,045.3,0.146,758.3,01.16,0.508
2014-04-08 01:31:00,3162E-2,5C000400,-0724,0998,10619,027.9,045.3,0.146,758.3,01.16,0.508
2014-04-08 01:32:00,3171E-2,5C000400,-0724,0997,10545,027.8,045.3,0.146,758.4,01.16,0.508
2014-04-08 01:33:00,3175E-2,5C000400,-0724,0998,10541,027.9,045.3,0.146,758.4,01.16,0.508
2014-04-08 01:34:00,3204E-2,5C000400,-0724,0996,10493,027.9,045.3,0.146,758.3,01.16,0.508
2014-04-08 01:35:00,3191E-2,5C000400,-0724,0997,10532,027.9,045.3,0.146,758.3,01.16,0.508
2014-04-08 01:36:00,3244E-2,5C000400,-0724,0996,10570,027.9,045.3,0.146,758.4,01.16,0.508
2014-04-08 01:37:00,3187E-2,5C000400,-0724,0997,10683,027.9,045.3,0.146,758.3,01.16,0.508
2014-04-08 01:38:00,3161E-2,5C000400,-0724,0997,10597,027.9,045.3,0.146,758.3,01.16,0.508
2014-04-08 01:39:00,3183E-2,5C000400,-0724,0997,10567,027.9,045.3,0.146,758.3,01.16,0.508
2014-04-08 01:40:00,3192E-2,5C000400,-0724,0995,10547,027.9,045.3,0.146,758.3,01.16,0.508
2014-04-08 01:41:00,3211E-2,5C000400,-0724,0997,10650,027.9,045.3,0.146,758.3,01.16,0.508
2014-04-08 01:42:00,3154E-2,5C000400,-0724,0997,10487,027.9,045.3,0.146,758.3,01.16,0.508
2014-04-08 01:43:00,3175E-2,5C000400,-0724,0997,10512,027.9,045.3,0.146,758.3,01.16,0.508
2014-04-08 01:44:00,3191E-2,5C000400,-0724,0997,10672,027.9,045.3,0.146,758.3,01.16,0.508
2014-04-08 01:45:00,3208E-2,5C000400,-0724,0996,10483,027.9,045.3,0.146,758.3,01.16,0.508
2014-04-08 01:46:00,3193E-2,5C000400,-0724,0998,10544,027.9,045.3,0.146,758.3,01.16,0.508
2014-04-08 01:47:00,3175E-2,5C000400,-0724,0996,10577,028.0,045.3,0.146,758.4,01.16,0.508
2014-04-08 01:48:00,3181E-2,5C000400,-0724,0996,10561,028.0,045.3,0.146,758.3,01.16,0.508
2014-04-08 01:49:00,3208E-2,5C000400,-0724,0997,10396,028.0,045.3,0.146,758.3,01.16,0.508
2014-04-08 01:50:00,3191E-2,5C000400,-0724,0997,10677,027.9,045.3,0.146,758.3,01.16,0.508
2014-04-08 01:51:00,3169E-2,5C000400,-0724,0997,10494,028.0,045.3,0.146,758.3,01.16,0.508
2014-04-08 01:52:00,3182E-2,5C000400,-0724,0996,10557,028.0,045.3,0.146,758.3,01.16,0.508
2014-04-08 01:53:00,3200E-2,5C000400,-0724,0997,10610,028.0,045.3,0.146,758.3,01.16,0.508
2014-04-08 01:54:00,3169E-2,5C000400,-0724,0997,10581,028.0,045.3,0.146,758.4,01.16,0.508
2014-04-08 01:55:00,3219E-2,5C000400,-0724,0997,10619,028.0,045.3,0.146,758.3,01.16,0.508
2014-04-08 01:56:00,3161E-2,5C000400,-0724,0996,10557,028.0,045.3,0.146,758.3,01.16,0.508
2014-04-08 01:57:00,3150E-2,5C000400,-0724,0997,10471,028.0,045.3,0.146,758.3,01.16,0.508
2014-04-08 01:58:00,3187E-2,5C000400,-0724,0997,10584,028.0,045.3,0.146,758.3,01.16,0.508
2014-04-08 01:59:00,3265E-2,5C000400,-0724,0997,10631,028.0,045.3,0.146,758.4,01.16,0.508
2014-04-08 02:00:00,3190E-2,5C000400,-0724,0996,10608,028.0,045.3,0.146,758.4,01.16,0.508
2014-04-08 02:01:00,3194E-2,5C000400,-0724,0996,10547,028.0,045.3,0.146,758.4,01.16,0.508
2014-04-08 02:02:00,3187E-2,5C000400,-0724,0995,10636,028.0,045.3,0.146,758.5,01.16,0.508
2014-04-08 02:03:00,3196E-2,5C000400,-0724,0996,10607,028.0,045.3,0.146,758.4,01.16,0.508
2014-04-08 02:04:00,3199E-2,5C000400,-0724,0995,10569,028.0,045.3,0.146,758.4,01.16,0.508
2014-04-08 02:05:00,3220E-2,5C000400,-0724,0994,10654,028.0,045.3,0.146,758.5,01.16,0.508
2014-04-08 02:06:00,3208E-2,5C000400,-0724,0995,10669,028.0,045.3,0.145,758.5,01.16,0.508
2014-04-08 02:07:00,3159E-2,5C000400,-0724,0995,10565,028.0,045.3,0.146,758.4,01.16,0.508
2014-04-08 02:08:00,3201E-2,5C000400,-0724,0995,10554,028.1,045.3,0.146,758.5,01.16,0.508
2014-04-08 02:09:00,3166E-2,5C000400,-0724,0994,10552,028.0,045.3,0.145,758.5,01.16,0.508
2014-04-08 02:10:00,3211E-2,5C000400,-0724,0995,10557,028.0,045.3,0.145,758.4,01.16,0.508
2014-04-08 02:11:00,3183E-2,5C000400,-0724,0993,10596,028.0,045.3,0.145,758.4,01.16,0.508
2014-04-08 02:12:00,3198E-2,5C000400,-0724,0993,10547,028.0,045.3,0.145,758.3,01.16,0.508
2014-04-08 02:13:00,3181E-2,5C000400,-0724,0993,10389,028.1,045.3,0.145,758.4,01.16,0.508
2014-04-08 02:14:00,3191E-2,5C000400,-0724,0994,10458,028.1,045.3,0.145,758.4,01.16,0.508
2014-04-08 02:15:00,3160E-2,5C000400,-0724,0993,10438,028.1,045.3,0.145,758.3,01.16,0.508
2014-04-08 02:16:00,3192E-2,5C000400,-0724,0992,10649,028.1,045.3,0.145,758.4,01.16,0.508
2014-04-08 02:17:00,3165E-2,5C000400,-0724,0993,10671,028.1,045.3,0.145,758.4,01.16,0.508
2014-04-08 02:18:00,3182E-2,5C000400,-0724,0993,10563,028.1,045.3,0.145,758.5,01.16,0.508
2014-04-08 02:19:00,3170E-2,5C000400,-0724,0993,10516,028.1,045.3,0.145,758.4,01.16,0.508
2014-04-08 02:20:00,3155E-2,5C000400,-0724,0994,10654,028.1,045.3,0.145,758.4,01.16,0.508
2014-04-08 02:21:00,3201E-2,5C000400,-0724,0993,10603,028.1,045.3,0.145,758.4,01.16,0.508
2014-04-08 02:22:00,3182E-2,5C000400,-0724,0994,10624,028.1,045.3,0.145,758.4,01.16,0.508
2014-04-08 02:23:00,3184E-2,5C000400,-0724,0993,10629,028.1,045.3,0.145,758.5,01.16,0.508
2014-04-08 02:24:00,3218E-2,5C000400,-0724,0994,10698,028.1,045.3,0.145,758.4,01.16,0.508
2014-04-08 02:25:00,3179E-2,5C000400,-0724,0992,10554,028.1,045.3,0.145,758.4,01.16,0.508
2014-04-08 02:26:00,3185E-2,5C000400,-0724,0993,10576,028.1,045.3,0.145,758.4,01.16,0.508
2014-04-08 02:27:00,3169E-2,5C000400,-0724,0993,10540,028.1,045.3,0.145,758.3,01.16,0.508
2014-04-08 02:28:00,3182E-2,5C000400,-0724,0993,10661,028.1,045.3,0.145,758.4,01.16,0.508
2014-04-08 02:29:00,3113E-2,5C000400,-0724,0993,10655,028.1,045.3,0.145,758.4,01.16,0.508
2014-04-08 02:30:00,3161E-2,5C000400,-0724,0994,10594,028.1,045.3,0.145,758.3,01.16,0.508
2014-04-08 02:31:00,3159E-2,5C000400,-0724,0993,10628,028.1,045.3,0.145,758.3,01.16,0.508
2014-04-08 02:32:00,3152E-2,5C000400,-0724,0993,10579,028.2,045.3,0.145,758.3,01.16,0.508
2014-04-08 02:33:00,3167E-2,5C000400,-0724,0993,10520,028.2,045.3,0.145,758.3,01.16,0.508
2014-04-08 02:34:00,3187E-2,5C000400,-0724,0993,10541,028.1,045.3,0.145,758.3,01.16,0.508
2014-04-08 02:35:00,3197E-2,5C000400,-0724,0993,10655,028.2,045.3,0.145,758.3,01.16,0.508
2014-04-08 02:36:00,3188E-2,5C000400,-0724,0994,10724,028.2,045.3,0.145,758.3,01.16,0.508
2014-04-08 02:37:00,3185E-2,5C000400,-0724,0993,10517,028.2,045.3,0.145,758.4,01.16,0.508
2014-04-08 02:38:00,3204E-2,5C000400,-0724,0993,10604,028.2,045.3,0.145,758.3,01.16,0.508
2014-04-08 02:39:00,3169E-2,5C000400,-0724,0993,10503,028.2,045.3,0.145,758.3,01.16,0.508
2014-04-08 02:40:00,3184E-2,5C000400,-0724,0993,10525,028.2,045.3,0.145,758.3,01.16,0.508
2014-04-08 02:41:00,3156E-2,5C000400,-0724,0993,10774,028.2,045.3,0.145,758.3,01.16,0.508
2014-04-08 02:42:00,3168E-2,5C000400,-0724,0993,10550,028.2,045.3,0.145,758.3,01.16,0.508
2014-04-08 02:43:00,3181E-2,5C000400,-0724,0992,10452,028.2,045.3,0.145,758.3,01.16,0.508
2014-04-08 02:44:00,3150E-2,5C000400,-0724,0993,10585,028.2,045.3,0.145,758.3,01.16,0.508
2014-04-08 02:45:00,3151E-2,5C000400,-0724,0993,10696,028.2,045.3,0.145,758.3,01.16,0.508
2014-04-08 02:46:00,3177E-2,5C000400,-0724,0995,10526,028.2,045.3,0.145,758.3,01.16,0.508
2014-04-08 02:47:00,3224E-2,5C000400,-0724,0994,10602,028.2,045.3,0.145,758.3,01.16,0.508
2014-04-08 02:48:00,3135E-2,5C000400,-0724,0993,10707,028.3,045.3,0.145,758.3,01.16,0.508
2014-04-08 02:49:00,3136E-2,5C000400,-0724,0993,10627,028.3,045.3,0.145,758.3,01.16,0.508
2014-04-08 02:50:00,3149E-2,5C000400,-0724,0993,10552,028.3,045.3,0.145,758.3,01.16,0.508
2014-04-08 02:51:00,3209E-2,5C000400,-0724,0993,10592,028.2,045.3,0.145,758.3,01.16,0.508
2014-04-08 02:52:00,3188E-2,5C000400,-0724,0992,10572,028.3,045.3,0.145,758.3,01.16,0.508
2014-04-08 02:53:00,3164E-2,5C000400,-0724,0993,10735,028.3,045.3,0.145,758.3,01.16,0.508
2014-04-08 02:54:00,3180E-2,5C000400,-0724,0994,10742,028.3,045.3,0.145,758.2,01.16,0.508
2014-04-08 02:55:00,3166E-2,5C000400,-0724,0993,10516,028.3,045.3,0.145,758.3,01.16,0.508
2014-04-08 02:56:00,3190E-2,5C000400,-0724,0993,10482,028.3,045.3,0.145,758.2,01.16,0.508
2014-04-08 02:57:00,3205E-2,5C000400,-0724,0992,10549,028.3,045.3,0.145,758.2,01.16,0.508
2014-04-08 02:58:00,3167E-2,5C000400,-0724,0992,10377,028.3,045.3,0.145,758.2,01.16,0.508
2014-04-08 02:59:00,3132E-2,5C000400,-0724,0994,10516,028.3,045.3,0.144,758.2,01.16,0.508
2014-04-08 03:00:00,3180E-2,5C000400,-0724,0993,10485,028.3,045.3,0.144,758.2,01.16,0.508
2014-04-08 03:01:00,3196E-2,5C000400,-0724,0993,10643,028.3,045.3,0.145,758.2,01.16,0.508
2014-04-08 03:02:00,3165E-2,5C000400,-0724,0993,10695,028.3,045.3,0.144,758.2,01.16,0.508
2014-04-08 03:03:00,3223E-2,5C000400,-0724,0994,10634,028.3,045.3,0.145,758.2,01.16,0.508
2014-04-08 03:04:00,3186E-2,5C000400,-0724,0993,10644,028.3,045.3,0.144,758.1,01.16,0.508
2014-04-08 03:05:00,3226E-2,5C000400,-0724,0994,10616,028.3,045.3,0.144,758.2,01.16,0.508
2014-04-08 03:06:00,3183E-2,5C000400,-0724,0992,10637,028.3,045.3,0.145,758.1,01.16,0.508
2014-04-08 03:07:00,3148E-2,5C000400,-0724,0993,10574,028.3,045.3,0.144,758.1,01.16,0.508
2014-04-08 03:08:00,3186E-2,5C000400,-0724,0992,10650,028.3,045.3,0.145,758.0,01.16,0.508
2014-04-08 03:09:00,3224E-2,5C000400,-0724,0993,10613,028.4,045.3,0.144,758.2,01.16,0.508
2014-04-08 03:10:00,3205E-2,5C000400,-0724,0993,10394,028.3,045.3,0.144,758.2,01.16,0.508
2014-04-08 03:11:00,3141E-2,5C000400,-0724,0993,10520,028.3,045.3,0.144,758.2,01.16,0.508
2014-04-08 03:12:00,3164E-2,5C000400,-0724,0993,10584,028.3,045.3,0.144,758.1,01.16,0.508
2014-04-08 03:13:00,3202E-2,5C000400,-0724,0993,10657,028.3,045.3,0.144,758.1,01.16,0.508
2014-04-08 03:14:00,3203E-2,5C000400,-0724,0993,10680,028.3,045.3,0.144,758.1,01.16,0.508
2014-04-08 03:15:00,3174E-2,5C000400,-0724,0993,10533,028.4,045.3,0.144,758.2,01.16,0.508
2014-04-08 03:16:00,3210E-2,5C000400,-0724,0993,10668,028.3,045.3,0.144,758.2,01.16,0.508
2014-04-08 03:17:00,3184E-2,5C000400,-0724,0993,10447,028.3,045.3,0.144,758.2,01.16,0.508
2014-04-08 03:18:00,3207E-2,5C000400,-0724,0991,10590,028.4,045.3,0.144,758.2,01.16,0.508
2014-04-08 03:19:00,3147E-2,5C000400,-0724,0991,10760,028.3,045.3,0.144,758.2,01.16,0.508
2014-04-08 03:20:00,3140E-2,5C000400,-0724,0991,10618,028.3,045.3,0.144,758.1,01.16,0.508
2014-04-08 03:21:00,3158E-2,5C000400,-0724,0989,10535,028.4,045.3,0.144,758.2,01.16,0.508
2014-04-08 03:22:00,3182E-2,5C000400,-0724,0989,10582,028.4,045.3,0.144,758.1,01.16,0.508
2014-04-08 03:23:00,3151E-2,5C000400,-0724,0988,10568,028.4,045.3,0.144,758.2,01.16,0.508
2014-04-08 03:24:00,3185E-2,5C000400,-0724,0989,10627,028.4,045.3,0.144,758.3,01.16,0.508
2014-04-08 03:25:00,3140E-2,5C000400,-0724,0988,10626,028.4,045.3,0.144,758.2,01.16,0.508
2014-04-08 03:26:00,3157E-2,5C000400,-0724,0988,10585,028.4,045.3,0.144,758.2,01.16,0.508
2014-04-08 03:27:00,3126E-2,5C000400,-0724,0988,10588,028.4,045.3,0.144,758.2,01.16,0.508
2014-04-08 03:28:00,3168E-2,5C000400,-0724,0987,10527,028.4,045.3,0.144,758.1,01.16,0.508
2014-04-08 03:29:00,3134E-2,5C000400,-0724,0988,10669,028.4,045.3,0.144,758.2,01.16,0.508
2014-04-08 03:30:00,3151E-2,5C000400,-0724,0988,10694,028.4,045.3,0.144,758.2,01.16,0.508
2014-04-08 03:31:00,3108E-2,5C000400,-0724,0987,10597,028.4,045.3,0.144,758.2,01.16,0.508
2014-04-08 03:32:00,3132E-2,5C000400,-0724,0987,10665,028.4,045.3,0.144,758.2,01.16,0.508
2014-04-08 03:33:00,3147E-2,5C000400,-0724,0986,10691,028.4,045.3,0.144,758.1,01.16,0.508
2014-04-08 03:34:00,3141E-2,5C000400,-0724,0986,10616,028.4,045.3,0.144,758.1,01.16,0.508
2014-04-08 03:35:00,3136E-2,5C000400,-0724,0986,10615,028.4,045.3,0.144,758.1,01.16,0.508
2014-04-08 03:36:00,3143E-2,5C000400,-0724,0985,10648,028.4,045.3,0.144,758.1,01.16,0.508
2014-04-08 03:37:00,3103E-2,5C000400,-0724,0986,10624,028.4,045.3,0.144,758.1,01.16,0.508
2014-04-08 03:38:00,3137E-2,5C000400,-0724,0986,10708,028.4,045.3,0.144,758.1,01.16,0.508
2014-04-08 03:39:00,3123E-2,5C000400,-0724,0986,10802,028.4,045.3,0.144,758.1,01.16,0.508
2014-04-08 03:40:00,3136E-2,5C000400,-0724,0985,10703,028.4,045.3,0.144,758.1,01.16,0.508
2014-04-08 03:41:00,3157E-2,5C000400,-0724,0986,10453,028.4,045.3,0.144,758.2,01.16,0.508
2014-04-08 03:42:00,3107E-2,5C000400,-0724,0985,10749,028.4,045.3,0.144,758.2,01.16,0.508
2014-04-08 03:43:00,3168E-2,5C000400,-0724,0985,10535,028.4,045.3,0.144,758.2,01.16,0.508
2014-04-08 03:44:00,3120E-2,5C000400,-0724,0985,10679,028.5,045.3,0.144,758.2,01.16,0.508
2014-04-08 03:45:00,3106E-2,5C000400,-0724,0984,10664,028.5,045.3,0.144,758.2,01.16,0.508
2014-04-08 03:46:00,3120E-2,5C000400,-0724,0984,10660,028.5,045.3,0.144,758.0,01.16,0.508
2014-04-08 03:47:00,3146E-2,5C000400,-0724,0985,10776,028.5,045.3,0.144,758.0,01.16,0.508
2014-04-08 03:48:00,3126E-2,5C000400,-0724,0985,10592,028.5,045.3,0.144,758.1,01.16,0.508
2014-04-08 03:49:00,3106E-2,5C000400,-0724,0983,10669,028.5,045.3,0.144,758.2,01.16,0.508
2014-04-08 03:50:00,3130E-2,5C000400,-0724,0984,10683,028.5,045.3,0.144,758.1,01.16,0.508
2014-04-08 03:51:00,3088E-2,5C000400,-0724,0984,10650,028.5,045.3,0.144,758.1,01.16,0.508
2014-04-08 03:52:00,3098E-2,5C000400,-0724,0985,10657,028.5,045.3,0.144,758.2,01.16,0.508
2014-04-08 03:53:00,3109E-2,5C000400,-0724,0986,10660,028.5,045.3,0.144,758.1,01.16,0.508
2014-04-08 03:54:00,3105E-2,5C000400,-0724,0983,10426,028.5,045.3,0.144,758.1,01.16,0.508
2014-04-08 03:55:00,3145E-2,5C000400,-0724,0984,10626,028.5,045.3,0.144,758.1,01.16,0.508
2014-04-08 03:56:00,3100E-2,5C000400,-0724,0983,10688,028.5,045.3,0.144,758.2,01.16,0.508
2014-04-08 03:57:00,3124E-2,5C000400,-0724,0984,10754,028.5,045.3,0.144,758.1,01.16,0.508
2014-04-08 03:58:00,3129E-2,5C000400,-0724,0984,10644,028.5,045.3,0.144,758.1,01.16,0.508
2014-04-08 03:59:00,3084E-2,5C000400,-0724,0983,10579,028.5,045.3,0.144,758.1,01.16,0.508
2014-04-08 04:00:00,3106E-2,5C000400,-0724,0984,10582,028.5,045.3,0.144,758.1,01.16,0.508
2014-04-08 04:01:00,3120E-2,5C000400,-0724,0983,10694,028.5,045.4,0.144,758.2,01.16,0.508
2014-04-08 04:02:00,3133E-2,5C000400,-0724,0983,10713,028.5,045.3,0.144,758.1,01.16,0.508
2014-04-08 04:03:00,3085E-2,5C000400,-0724,0984,10752,028.5,045.3,0.144,758.1,01.16,0.508
2014-04-08 04:04:00,3136E-2,5C000400,-0724,0984,10686,028.5,045.3,0.144,758.1,01.16,0.508
2014-04-08 04:05:00,3151E-2,5C000400,-0724,0984,10754,028.5,045.3,0.144,758.1,01.16,0.508
2014-04-08 04:06:00,3130E-2,5C000400,-0724,0984,10790,028.5,045.3,0.144,758.0,01.16,0.508
2014-04-08 04:07:00,3100E-2,5C000400,-0724,0983,10705,028.5,045.3,0.144,758.1,01.16,0.508
2014-04-08 04:08:00,3111E-2,5C000400,-0724,0983,10823,028.5,045.3,0.144,758.1,01.16,0.508
2014-04-08 04:09:00,3084E-2,5C000400,-0724,0984,10791,028.5,045.3,0.144,758.0,01.16,0.508
2014-04-08 04:10:00,3100E-2,5C000400,-0724,0983,10560,028.5,045.3,0.143,758.0,01.16,0.508
2014-04-08 04:11:00,3113E-2,5C000400,-0724,0983,10548,028.6,045.3,0.144,758.0,01.16,0.508
2014-04-08 04:12:00,3151E-2,5C000400,-0724,0983,10636,028.6,045.3,0.144,758.0,01.16,0.508
2014-04-08 04:13:00,3085E-2,5C000400,-0724,0984,10765,028.6,045.3,0.144,758.0,01.16,0.508
2014-04-08 04:14:00,3103E-2,5C000400,-0724,0984,10560,028.6,045.3,0.143,758.0,01.16,0.508
2014-04-08 04:15:00,3132E-2,5C000400,-0724,0984,10595,028.6,045.3,0.143,758.0,01.16,0.508
2014-04-08 04:16:00,3120E-2,5C000400,-0724,0982,10745,028.6,045.3,0.143,758.0,01.16,0.508
2014-04-08 04:17:00,3090E-2,5C000400,-0724,0984,10655,028.6,045.3,0.143,758.0,01.16,0.508
2014-04-08 04:18:00,3143E-2,5C000400,-0724,0983,10619,028.6,045.3,0.143,758.0,01.16,0.508
2014-04-08 04:19:00,3120E-2,5C000400,-0724,0982,10638,028.6,045.3,0.143,758.0,01.16,0.508
2014-04-08 04:20:00,3158E-2,5C000400,-0724,0983,10741,028.6,045.3,0.143,758.0,01.16,0.508